Tracking 28790 objects as of 19-Apr-2024
HD Live streaming from Space Station
objects crossing your sky now

THORAD AGENA D DEB

Track THORAD AGENA D DEB now!
10-day predictions


NORAD ID: 4950
Int'l Code: 1970-025GL
Perigee: 1,061.8 km
Apogee: 1,399.3 km
Inclination: 99.8 °
Period: 109.9 minutes
Semi major axis: 7601 km
RCS: 0.0796 m2 (small)
Launch date: April 8, 1970
Source: United States (US)
Launch site: AIR FORCE WESTERN TEST RANGE (AFWTR)

Note: This is SATELLITE DEBRIS
Your satellite tracking list
Your tracking list is empty




NASA's NSSDC Master Catalog

Two Line Element Set (TLE):
1 04950U 70025GL  24109.40677711  .00000370  00000-0  10424-2 0  9994
2 04950  99.8332  52.5638 0222021  40.0484  84.5137 13.09930408580088
Source of the keplerian elements: AFSPC